Tracking 35019 objects as of 13-Aug-2026
HD Live streaming from Space Station
objects crossing your sky now

FREGAT DEB


10-day predictions


NORAD ID: 46522
Int'l Code: 2011-037MA
Launch date: July 18, 2011
Source: Commonwealth of Independent States (former USSR) (CIS)
Launch site: TYURATAM MISSILE AND SPACE COMPLEX (TTMTR)

Note: This is SATELLITE DEBRIS
Your satellite tracking list
Your tracking list is empty




NASA's NSSDC Master Catalog

Two Line Element Set (TLE):
1 46522U 11037MA  21025.93927497  .00083559  00000-0  71595-1 0  9999
2 46522  51.4244 219.4750 1789856 187.1928 169.3770 11.08700838 16139
Source of the keplerian elements: AFSPC